EZY64HX EGGD-LMML

Flight info

Callsign EZY64HX
Flight time 2h 31m
Altitude 35000
Route YORQI L607 ALHAD UN859 VAPID L18 MID UL612 OGULO DCT OKASI DCT OKEKO DCT MOU DCT MADIV DCT MOKIP DCT TUFTA DCT KOGAS DCT MEDAM DCT NITAM DCT MOGBO DCT KONER DCT POKAV DCT PAL DCT MARON DCT EKOLA L12 GZO
Aircraft A320/M-SDE2E3FGHIJ1RWXYZ/LB1

Departure

Time 2026-05-04 11:46
Airport Bristol Airport (EGGD)

Arrival

Time 2026-05-04 14:17
Airport Malta International Airport (LMML)
Time Latitude Longitude Altitude Speed Heading
2026-05-04 10:39 51.38521 -2.71141 612 ft 0 kts 357°
2026-05-04 11:19 51.38520 -2.71141 611 ft 0 kts 357°
2026-05-04 11:37 51.38519 -2.71141 611 ft 2 kts 357°
2026-05-04 11:37 51.38493 -2.71139 617 ft 3 kts 356°
2026-05-04 11:37 51.38484 -2.71138 622 ft 0 kts 356°
2026-05-04 11:38 51.38486 -2.71138 621 ft 0 kts 356°
2026-05-04 11:38 51.38475 -2.71137 628 ft 2 kts 356°
2026-05-04 11:38 51.38460 -2.71137 622 ft 2 kts 331°
2026-05-04 11:39 51.38450 -2.71119 626 ft 1 kts 281°
2026-05-04 11:39 51.38449 -2.71119 626 ft 0 kts 281°
2026-05-04 11:41 51.38451 -2.71128 628 ft 5 kts 281°
2026-05-04 11:41 51.38453 -2.71264 626 ft 18 kts 266°
2026-05-04 11:41 51.38445 -2.71500 613 ft 23 kts 266°
2026-05-04 11:42 51.38435 -2.71767 608 ft 25 kts 266°
2026-05-04 11:42 51.38431 -2.72046 605 ft 26 kts 267°
2026-05-04 11:42 51.38422 -2.72324 610 ft 24 kts 266°
2026-05-04 11:43 51.38402 -2.72855 611 ft 26 kts 266°
2026-05-04 11:43 51.38391 -2.73132 607 ft 10 kts 265°
2026-05-04 11:43 51.38390 -2.73153 608 ft 0 kts 266°
2026-05-04 11:44 51.38389 -2.73177 608 ft 7 kts 266°
2026-05-04 11:44 51.38364 -2.73300 621 ft 17 kts 234°
2026-05-04 11:44 51.38238 -2.73318 629 ft 22 kts 144°
2026-05-04 11:44 51.38216 -2.73226 626 ft 0 kts 89°
2026-05-04 11:45 51.38217 -2.73139 627 ft 34 kts 88°
2026-05-04 11:45 51.38249 -2.72350 626 ft 106 kts 86°
2026-05-04 11:45 51.38311 -2.70851 682 ft 155 kts 84°
2026-05-04 11:46 51.38393 -2.69109 1320 ft 159 kts 83°
2026-05-04 11:46 51.38493 -2.66802 2394 ft 149 kts 88°
2026-05-04 11:46 51.38531 -2.65246 3151 ft 134 kts 89°
2026-05-04 11:46 51.38578 -2.64142 3124 ft 163 kts 86°
2026-05-04 11:47 51.38720 -2.62134 3164 ft 190 kts 86°
2026-05-04 11:47 51.38786 -2.59934 3439 ft 208 kts 89°
2026-05-04 11:47 51.38842 -2.57532 3735 ft 227 kts 84°
2026-05-04 11:47 51.39494 -2.55117 4066 ft 253 kts 49°
2026-05-04 11:48 51.40964 -2.53439 4711 ft 265 kts 32°
2026-05-04 11:48 51.42578 -2.51965 5541 ft 269 kts 31°
2026-05-04 11:48 51.44223 -2.50499 6386 ft 272 kts 30°
2026-05-04 11:48 51.45875 -2.48986 7152 ft 275 kts 32°
2026-05-04 11:49 51.47527 -2.47379 7862 ft 280 kts 33°
2026-05-04 11:49 51.49196 -2.45709 8576 ft 286 kts 33°
2026-05-04 11:49 51.50839 -2.43882 9286 ft 289 kts 46°
2026-05-04 11:49 51.51872 -2.41140 9869 ft 292 kts 77°
2026-05-04 11:50 51.51995 -2.37919 10002 ft 291 kts 96°
2026-05-04 11:50 51.51806 -2.34687 10030 ft 291 kts 99°
2026-05-04 11:50 51.51553 -2.31460 10086 ft 293 kts 100°
2026-05-04 11:50 51.51277 -2.28178 10553 ft 306 kts 99°
2026-05-04 11:51 51.50988 -2.24674 10748 ft 328 kts 99°
2026-05-04 11:51 51.50694 -2.20919 10894 ft 350 kts 98°
2026-05-04 11:51 51.50401 -2.16931 11017 ft 370 kts 98°
2026-05-04 11:51 51.50107 -2.12779 11142 ft 388 kts 98°
2026-05-04 11:52 51.49798 -2.08323 11285 ft 404 kts 98°
2026-05-04 11:52 51.49491 -2.03864 11681 ft 410 kts 98°
2026-05-04 11:52 51.49178 -1.99303 12218 ft 412 kts 98°
2026-05-04 11:52 51.48861 -1.94714 12754 ft 415 kts 98°
2026-05-04 11:53 51.48536 -1.90095 13226 ft 419 kts 98°
2026-05-04 11:53 51.48200 -1.85427 13706 ft 423 kts 98°
2026-05-04 11:53 51.47857 -1.80721 14181 ft 426 kts 98°
2026-05-04 11:53 51.47506 -1.75987 14615 ft 429 kts 98°
2026-05-04 11:55 51.43480 -1.42653 17554 ft 443 kts 104°
2026-05-04 11:55 51.42816 -1.37820 17907 ft 446 kts 104°
2026-05-04 11:56 51.42145 -1.32953 18278 ft 448 kts 104°
2026-05-04 11:56 51.41467 -1.28076 18602 ft 450 kts 105°
2026-05-04 11:56 51.40507 -1.23308 18903 ft 450 kts 115°
2026-05-04 11:56 51.39020 -1.18909 19210 ft 450 kts 125°
2026-05-04 11:57 51.37052 -1.15033 19502 ft 449 kts 137°
2026-05-04 11:57 51.34667 -1.11805 19775 ft 450 kts 142°
2026-05-04 11:57 51.32232 -1.08648 20076 ft 452 kts 142°
2026-05-04 11:57 51.29792 -1.05480 20391 ft 452 kts 142°
2026-05-04 11:58 51.27344 -1.02307 20655 ft 454 kts 142°
2026-05-04 11:58 51.24881 -0.99126 20903 ft 456 kts 142°
2026-05-04 11:58 51.22406 -0.95942 21155 ft 458 kts 142°
2026-05-04 11:58 51.19951 -0.92792 21359 ft 461 kts 143°
2026-05-04 11:59 51.17413 -0.89542 21584 ft 463 kts 143°
2026-05-04 11:59 51.14898 -0.86332 21831 ft 465 kts 143°
2026-05-04 11:59 51.12367 -0.83109 22068 ft 466 kts 143°
2026-05-04 11:59 51.09861 -0.79922 22307 ft 468 kts 143°
2026-05-04 12:00 51.07282 -0.76643 22541 ft 470 kts 143°
2026-05-04 12:00 51.04722 -0.73394 22787 ft 472 kts 143°
2026-05-04 12:00 51.02150 -0.70133 23005 ft 473 kts 143°
2026-05-04 12:00 50.99608 -0.66908 23250 ft 474 kts 143°
2026-05-04 12:01 50.96996 -0.63597 23548 ft 474 kts 143°
2026-05-04 12:01 50.94451 -0.60381 23835 ft 474 kts 143°
2026-05-04 12:02 50.79124 -0.41116 25801 ft 463 kts 144°
2026-05-04 12:03 50.76602 -0.37961 26138 ft 462 kts 144°
2026-05-04 12:03 50.74087 -0.34821 26478 ft 460 kts 144°
2026-05-04 12:03 50.71581 -0.31699 26815 ft 458 kts 145°
2026-05-04 12:03 50.69082 -0.28588 27162 ft 457 kts 145°
2026-05-04 12:04 50.66595 -0.25492 27511 ft 455 kts 145°
2026-05-04 12:04 50.64116 -0.22408 27873 ft 453 kts 145°
2026-05-04 12:04 50.61646 -0.19339 28223 ft 451 kts 145°
2026-05-04 12:04 50.59183 -0.16286 28589 ft 450 kts 145°
2026-05-04 12:05 50.56725 -0.13249 28944 ft 448 kts 145°
2026-05-04 12:05 50.54265 -0.10218 29294 ft 447 kts 145°
2026-05-04 12:05 50.51830 -0.07219 29648 ft 445 kts 145°
2026-05-04 12:05 50.49397 -0.04226 30002 ft 444 kts 145°
2026-05-04 12:06 50.46967 -0.01237 30308 ft 443 kts 145°
2026-05-04 12:06 50.44569 0.01681 30509 ft 443 kts 146°
2026-05-04 12:06 50.42067 0.04497 30736 ft 442 kts 149°
2026-05-04 12:06 50.39511 0.07165 30993 ft 441 kts 150°
2026-05-04 12:07 50.36929 0.09745 31259 ft 440 kts 150°
2026-05-04 12:07 50.34342 0.12295 31532 ft 439 kts 150°
2026-05-04 12:07 50.31768 0.14854 31796 ft 438 kts 150°
2026-05-04 12:07 50.29206 0.17441 32063 ft 438 kts 149°
2026-05-04 12:08 50.26663 0.20046 32331 ft 437 kts 149°
2026-05-04 12:08 50.24125 0.22658 32597 ft 436 kts 149°
2026-05-04 12:08 50.21592 0.25270 32858 ft 436 kts 149°
2026-05-04 12:08 50.19066 0.27876 33111 ft 435 kts 149°
2026-05-04 12:09 50.16544 0.30477 33361 ft 435 kts 149°
2026-05-04 12:09 50.14022 0.33077 33607 ft 434 kts 149°
2026-05-04 12:09 50.11502 0.35668 33860 ft 434 kts 149°
2026-05-04 12:09 50.08985 0.38248 34090 ft 433 kts 149°
2026-05-04 12:10 50.06468 0.40825 34288 ft 433 kts 149°
2026-05-04 12:10 50.03947 0.43399 34464 ft 434 kts 149°
2026-05-04 12:10 50.01421 0.45977 34613 ft 434 kts 149°
2026-05-04 12:10 49.98899 0.48548 34823 ft 434 kts 149°
2026-05-04 12:11 49.96376 0.51122 34977 ft 434 kts 149°
2026-05-04 12:11 49.93848 0.53697 35020 ft 435 kts 149°
2026-05-04 12:11 49.88781 0.58845 35024 ft 435 kts 149°
2026-05-04 12:12 49.83845 0.64283 35019 ft 437 kts 143°
2026-05-04 12:12 49.79130 0.70229 35016 ft 437 kts 143°
2026-05-04 12:14 49.60224 0.93907 34994 ft 437 kts 144°
2026-05-04 12:15 49.55499 0.99792 35003 ft 436 kts 144°
2026-05-04 12:15 49.50773 1.05658 35004 ft 436 kts 144°
2026-05-04 12:16 49.46052 1.11494 35009 ft 435 kts 144°
2026-05-04 12:16 49.41362 1.17284 35008 ft 435 kts 144°
2026-05-04 12:17 49.36642 1.23100 35008 ft 435 kts 144°
2026-05-04 12:17 49.31916 1.28896 35011 ft 435 kts 144°
2026-05-04 12:18 49.27190 1.34687 34989 ft 435 kts 144°
2026-05-04 12:18 49.22474 1.40455 34998 ft 433 kts 145°
2026-05-04 12:19 49.17765 1.46209 34991 ft 433 kts 145°
2026-05-04 12:19 49.13060 1.51939 34986 ft 432 kts 145°
2026-05-04 12:20 49.08356 1.57642 34985 ft 432 kts 145°
2026-05-04 12:20 49.03649 1.63325 34979 ft 432 kts 145°
2026-05-04 12:21 48.98941 1.69004 34981 ft 431 kts 145°
2026-05-04 12:21 48.94234 1.74674 34984 ft 432 kts 145°
2026-05-04 12:22 48.89523 1.80348 34966 ft 432 kts 145°
2026-05-04 12:22 48.84804 1.86009 34966 ft 432 kts 146°
2026-05-04 12:23 48.80077 1.91646 34975 ft 432 kts 146°
2026-05-04 12:23 48.75345 1.97280 34973 ft 432 kts 146°
2026-05-04 12:24 48.70615 2.02903 34971 ft 432 kts 146°
2026-05-04 12:24 48.65884 2.08511 34974 ft 432 kts 146°
2026-05-04 12:25 48.61156 2.14122 34967 ft 432 kts 146°
2026-05-04 12:25 48.56497 2.19777 34955 ft 435 kts 140°
2026-05-04 12:26 48.52190 2.26303 34967 ft 436 kts 139°
2026-05-04 12:26 48.47943 2.32751 34978 ft 436 kts 139°
2026-05-04 12:27 48.43663 2.39227 34982 ft 436 kts 139°
2026-05-04 12:27 48.39377 2.45688 34980 ft 436 kts 139°
2026-05-04 12:28 48.35092 2.52134 34980 ft 435 kts 139°
2026-05-04 12:28 48.30809 2.58559 34959 ft 435 kts 139°
2026-05-04 12:29 48.26056 2.63976 34964 ft 426 kts 156°
2026-05-04 12:29 48.20705 2.67709 34968 ft 425 kts 157°
2026-05-04 12:30 48.15452 2.71823 34966 ft 426 kts 154°
2026-05-04 12:30 48.10272 2.76153 34973 ft 427 kts 154°
2026-05-04 12:31 48.04941 2.79982 34980 ft 425 kts 160°
2026-05-04 12:31 47.99508 2.83436 34970 ft 424 kts 160°
2026-05-04 12:32 47.91353 2.88574 34966 ft 424 kts 160°
2026-05-04 12:33 47.86839 2.91437 34967 ft 424 kts 160°
2026-05-04 12:33 47.81407 2.94882 34962 ft 424 kts 160°
2026-05-04 12:34 47.75973 2.98301 34940 ft 424 kts 160°
2026-05-04 12:34 47.70536 3.01721 34950 ft 424 kts 160°
2026-05-04 12:35 47.65105 3.05131 34948 ft 424 kts 160°
2026-05-04 12:35 47.62379 3.06836 34488 ft 426 kts 157°
2026-05-04 12:35 47.59641 3.08546 34677 ft 428 kts 157°
2026-05-04 12:35 47.56889 3.10265 34859 ft 430 kts 157°
2026-05-04 12:36 47.54130 3.11988 35017 ft 432 kts 158°
2026-05-04 12:36 47.48513 3.15498 35007 ft 444 kts 157°
2026-05-04 12:37 47.42731 3.19100 35010 ft 458 kts 158°
2026-05-04 12:37 47.36778 3.22782 35008 ft 470 kts 158°
2026-05-04 12:38 47.30657 3.26560 35014 ft 483 kts 158°
2026-05-04 12:38 47.24376 3.30430 35008 ft 496 kts 158°
2026-05-04 12:39 47.17938 3.34401 35011 ft 508 kts 158°
2026-05-04 12:39 47.11349 3.38448 35013 ft 519 kts 158°
2026-05-04 12:40 47.04614 3.42565 35015 ft 529 kts 158°
2026-05-04 12:40 46.97811 3.46720 35010 ft 531 kts 158°
2026-05-04 12:41 46.90986 3.50881 35006 ft 531 kts 158°
2026-05-04 12:41 46.84213 3.54998 35003 ft 531 kts 158°
2026-05-04 12:42 46.77575 3.59657 35010 ft 529 kts 144°
2026-05-04 12:42 46.72203 3.66818 35001 ft 521 kts 123°
2026-05-04 12:43 46.68710 3.75857 34993 ft 506 kts 104°
2026-05-04 12:43 46.66909 3.85560 35645 ft 470 kts 111°
2026-05-04 12:43 46.66204 3.90004 37180 ft 436 kts 96°
2026-05-04 12:44 46.65553 3.94261 37472 ft 437 kts 97°
2026-05-04 12:44 46.64852 3.98726 36496 ft 464 kts 98°
2026-05-04 12:44 46.64024 4.03403 35545 ft 491 kts 102°
2026-05-04 12:44 46.63101 4.08277 35184 ft 506 kts 103°
2026-05-04 12:45 46.62148 4.13266 34968 ft 517 kts 103°
2026-05-04 12:45 46.60275 4.23454 35005 ft 526 kts 102°
2026-05-04 12:46 46.58465 4.33796 35014 ft 530 kts 105°
2026-05-04 12:46 46.56644 4.44256 35006 ft 539 kts 105°
2026-05-04 12:47 46.54770 4.54841 35011 ft 549 kts 105°
2026-05-04 12:47 46.52844 4.65594 35005 ft 551 kts 105°
2026-05-04 12:48 46.50913 4.76351 35011 ft 551 kts 105°
2026-05-04 12:48 46.48962 4.87122 35009 ft 551 kts 105°
2026-05-04 12:49 46.46997 4.97870 35010 ft 551 kts 105°
2026-05-04 12:49 46.45004 5.08598 35019 ft 551 kts 109°
2026-05-04 12:49 46.43517 5.13680 35008 ft 545 kts 124°
2026-05-04 12:50 46.41336 5.18105 35006 ft 536 kts 135°
2026-05-04 12:50 46.38867 5.22130 35126 ft 529 kts 130°
2026-05-04 12:50 46.36501 5.26198 35167 ft 531 kts 130°
2026-05-04 12:50 46.34075 5.30300 34981 ft 541 kts 132°
2026-05-04 12:51 46.31534 5.34351 35016 ft 546 kts 133°
2026-05-04 12:51 46.26292 5.42435 35008 ft 556 kts 134°
2026-05-04 12:52 46.21001 5.50722 35010 ft 565 kts 133°
2026-05-04 12:52 46.15736 5.59178 35010 ft 567 kts 132°
2026-05-04 12:53 46.10467 5.67665 34999 ft 568 kts 133°
2026-05-04 12:53 46.05158 5.76135 35014 ft 573 kts 133°
2026-05-04 12:54 45.99795 5.84603 35010 ft 577 kts 133°
2026-05-04 12:54 45.94340 5.93187 35011 ft 585 kts 133°
2026-05-04 12:55 45.88853 6.01826 35003 ft 588 kts 133°
2026-05-04 12:55 45.83293 6.10571 35007 ft 597 kts 133°
2026-05-04 12:56 45.77662 6.19378 35009 ft 601 kts 134°
2026-05-04 12:56 45.71982 6.28234 35006 ft 606 kts 134°
2026-05-04 12:57 45.66236 6.37173 35009 ft 613 kts 134°
2026-05-04 12:57 45.60454 6.46119 35007 ft 613 kts 134°
2026-05-04 12:58 45.54653 6.55065 34980 ft 615 kts 134°
2026-05-04 12:58 45.48839 6.64014 34980 ft 617 kts 134°
2026-05-04 12:59 45.42998 6.72977 34997 ft 619 kts 134°
2026-05-04 12:59 45.37120 6.81948 34972 ft 620 kts 134°
2026-05-04 13:00 45.31217 6.90928 34967 ft 622 kts 135°
2026-05-04 13:00 45.25316 6.99908 34984 ft 624 kts 134°
2026-05-04 13:01 45.19508 7.08954 35486 ft 609 kts 137°
2026-05-04 13:01 45.16689 7.13333 36031 ft 595 kts 136°
2026-05-04 13:01 45.13871 7.17539 36492 ft 585 kts 137°
2026-05-04 13:01 45.11047 7.21664 36781 ft 579 kts 146°
2026-05-04 13:02 45.08261 7.25718 37204 ft 570 kts 147°
2026-05-04 13:02 45.05518 7.29739 37535 ft 567 kts 134°
2026-05-04 13:02 45.02783 7.33788 37479 ft 572 kts 133°
2026-05-04 13:02 45.00012 7.37926 36380 ft 589 kts 133°
2026-05-04 13:03 44.97180 7.42182 35582 ft 599 kts 133°
2026-05-04 13:03 44.94310 7.46500 35234 ft 605 kts 133°
2026-05-04 13:03 44.91418 7.50838 34970 ft 609 kts 133°
2026-05-04 13:04 44.85626 7.59461 35002 ft 611 kts 133°
2026-05-04 13:04 44.79767 7.68128 35011 ft 611 kts 133°
2026-05-04 13:05 44.73896 7.76781 35010 ft 611 kts 133°
2026-05-04 13:05 44.67991 7.85484 35006 ft 611 kts 133°
2026-05-04 13:06 44.62153 7.94062 35008 ft 611 kts 134°
2026-05-04 13:06 44.56260 8.02666 35008 ft 612 kts 134°
2026-05-04 13:06 44.53109 8.06650 34992 ft 609 kts 147°
2026-05-04 13:07 44.49650 8.10064 34984 ft 607 kts 149°
2026-05-04 13:07 44.42703 8.16810 34984 ft 608 kts 148°
2026-05-04 13:08 44.35730 8.23532 34985 ft 610 kts 147°
2026-05-04 13:08 44.28739 8.30258 34985 ft 610 kts 147°
2026-05-04 13:09 44.21746 8.36973 35001 ft 610 kts 148°
2026-05-04 13:09 44.14749 8.43670 35012 ft 610 kts 147°
2026-05-04 13:10 44.07755 8.50351 35020 ft 609 kts 148°
2026-05-04 13:10 44.00764 8.57003 35022 ft 609 kts 148°
2026-05-04 13:11 43.93781 8.63633 35017 ft 608 kts 148°
2026-05-04 13:11 43.86793 8.70255 35012 ft 608 kts 148°
2026-05-04 13:12 43.79803 8.76851 35018 ft 608 kts 148°
2026-05-04 13:12 43.72814 8.83440 35010 ft 608 kts 148°
2026-05-04 13:13 43.65812 8.90009 35010 ft 608 kts 148°
2026-05-04 13:13 43.58808 8.96548 35010 ft 608 kts 148°
2026-05-04 13:14 43.51801 9.03084 35013 ft 608 kts 148°
2026-05-04 13:14 43.44847 9.09570 35016 ft 608 kts 148°
2026-05-04 13:15 43.37835 9.16069 35007 ft 608 kts 148°
2026-05-04 13:15 43.30824 9.22556 35007 ft 608 kts 148°
2026-05-04 13:16 43.23807 9.29026 35007 ft 607 kts 148°
2026-05-04 13:16 43.16791 9.35480 34999 ft 607 kts 148°
2026-05-04 13:17 43.09773 9.41919 35005 ft 607 kts 148°
2026-05-04 13:17 43.02753 9.48339 34999 ft 607 kts 148°
2026-05-04 13:18 42.95724 9.54739 34999 ft 607 kts 148°
2026-05-04 13:18 42.88700 9.61134 34997 ft 607 kts 148°
2026-05-04 13:19 42.81675 9.67515 34997 ft 607 kts 149°
2026-05-04 13:19 42.74639 9.73872 35006 ft 607 kts 149°
2026-05-04 13:20 42.67598 9.80219 34997 ft 607 kts 149°
2026-05-04 13:20 42.60560 9.86559 35000 ft 607 kts 149°
2026-05-04 13:21 42.53516 9.92884 34995 ft 607 kts 149°
2026-05-04 13:21 42.47657 9.98121 35002 ft 607 kts 149°
2026-05-04 13:22 42.40602 10.04420 34997 ft 607 kts 149°
2026-05-04 13:22 42.33545 10.10704 35001 ft 607 kts 149°
2026-05-04 13:23 42.26483 10.16970 35006 ft 607 kts 149°
2026-05-04 13:23 42.19419 10.23225 35005 ft 607 kts 149°
2026-05-04 13:24 42.12353 10.29474 35007 ft 608 kts 149°
2026-05-04 13:24 42.05278 10.35699 35014 ft 607 kts 149°
2026-05-04 13:25 41.94667 10.45012 35003 ft 607 kts 149°
2026-05-04 13:25 41.87588 10.51200 35005 ft 607 kts 149°
2026-05-04 13:26 41.80506 10.57369 35006 ft 607 kts 149°
2026-05-04 13:26 41.73417 10.63544 35007 ft 608 kts 149°
2026-05-04 13:27 41.66324 10.69707 35008 ft 608 kts 149°
2026-05-04 13:27 41.59223 10.75839 35013 ft 608 kts 150°
2026-05-04 13:28 41.52126 10.81962 35014 ft 607 kts 149°
2026-05-04 13:28 41.45028 10.88082 35013 ft 607 kts 150°
2026-05-04 13:29 41.37925 10.94177 35009 ft 608 kts 150°
2026-05-04 13:29 41.30815 11.00258 35019 ft 607 kts 150°
2026-05-04 13:30 41.23741 11.06304 34996 ft 598 kts 149°
2026-05-04 13:30 41.16806 11.12224 35014 ft 586 kts 149°
2026-05-04 13:31 41.10008 11.18008 35008 ft 576 kts 149°
2026-05-04 13:31 41.03302 11.23688 35007 ft 569 kts 149°
2026-05-04 13:32 40.96644 11.29302 35024 ft 566 kts 149°
2026-05-04 13:32 40.90023 11.34890 35042 ft 562 kts 149°
2026-05-04 13:33 40.83473 11.40305 34998 ft 547 kts 154°
2026-05-04 13:33 40.76761 11.44764 35013 ft 534 kts 155°
2026-05-04 13:34 40.70195 11.49098 35010 ft 522 kts 155°
2026-05-04 13:34 40.63679 11.53384 35014 ft 524 kts 155°
2026-05-04 13:35 40.53891 11.59820 35015 ft 524 kts 155°
2026-05-04 13:36 40.47363 11.64098 35012 ft 525 kts 155°
2026-05-04 13:36 40.40869 11.68345 35017 ft 525 kts 155°
2026-05-04 13:37 40.34336 11.72624 35024 ft 525 kts 155°
2026-05-04 13:37 40.27795 11.76892 35022 ft 525 kts 155°
2026-05-04 13:38 40.21254 11.81134 35020 ft 525 kts 156°
2026-05-04 13:38 40.14663 11.85407 35022 ft 525 kts 155°
2026-05-04 13:39 40.08120 11.89641 35023 ft 525 kts 155°
2026-05-04 13:39 40.01574 11.93864 35011 ft 525 kts 155°
2026-05-04 13:40 39.95013 11.98088 34982 ft 527 kts 155°
2026-05-04 13:40 39.88464 12.02302 34978 ft 530 kts 155°
2026-05-04 13:41 39.81846 12.06557 35063 ft 525 kts 160°
2026-05-04 13:41 39.78617 12.08637 35575 ft 514 kts 160°
2026-05-04 13:41 39.75434 12.10696 36099 ft 506 kts 162°
2026-05-04 13:42 39.69130 12.14709 35253 ft 513 kts 161°
2026-05-04 13:42 39.65923 12.16727 35006 ft 512 kts 159°
2026-05-04 13:42 39.59472 12.20797 35013 ft 521 kts 156°
2026-05-04 13:43 39.52875 12.24985 35005 ft 534 kts 155°
2026-05-04 13:43 39.46210 12.29256 35323 ft 522 kts 158°
2026-05-04 13:44 39.43014 12.31347 36093 ft 509 kts 160°
2026-05-04 13:44 39.39903 12.33410 36798 ft 495 kts 161°
2026-05-04 13:44 39.36936 12.35449 37558 ft 469 kts 162°
2026-05-04 13:44 39.34109 12.37427 37261 ft 463 kts 162°
2026-05-04 13:45 39.31157 12.39257 36413 ft 479 kts 163°
2026-05-04 13:45 39.28061 12.40999 36122 ft 491 kts 166°
2026-05-04 13:45 39.24908 12.42760 35948 ft 495 kts 161°
2026-05-04 13:45 39.21753 12.44595 36014 ft 500 kts 156°
2026-05-04 13:46 39.15442 12.48507 36011 ft 513 kts 154°
2026-05-04 13:46 39.08983 12.52654 36010 ft 525 kts 154°
2026-05-04 13:47 39.02366 12.56856 36009 ft 536 kts 155°
2026-05-04 13:47 38.95594 12.61070 36008 ft 546 kts 155°
2026-05-04 13:48 38.88728 12.65320 36009 ft 549 kts 155°
2026-05-04 13:48 38.81852 12.69596 36009 ft 549 kts 155°
2026-05-04 13:49 38.74973 12.73870 36010 ft 549 kts 155°
2026-05-04 13:49 38.68092 12.78124 36010 ft 549 kts 155°
2026-05-04 13:50 38.61210 12.82373 36012 ft 549 kts 155°
2026-05-04 13:50 38.57762 12.84498 35825 ft 550 kts 155°
2026-05-04 13:50 38.54316 12.86620 35576 ft 550 kts 155°
2026-05-04 13:51 38.50917 12.88710 35331 ft 550 kts 155°
2026-05-04 13:51 38.47471 12.90831 35074 ft 550 kts 155°
2026-05-04 13:51 38.44020 12.92955 34832 ft 551 kts 155°
2026-05-04 13:51 38.40569 12.95078 34585 ft 551 kts 155°
2026-05-04 13:52 38.33661 12.99315 33451 ft 551 kts 155°
2026-05-04 13:52 38.30206 13.01430 33116 ft 552 kts 155°
2026-05-04 13:52 38.26735 13.03545 32960 ft 553 kts 155°
2026-05-04 13:53 38.23256 13.05658 33018 ft 554 kts 155°
2026-05-04 13:53 38.16297 13.09894 33010 ft 555 kts 155°
2026-05-04 13:54 38.05814 13.16264 33010 ft 557 kts 155°
2026-05-04 13:55 37.95155 13.22303 33006 ft 559 kts 159°
2026-05-04 13:55 37.84347 13.27786 33010 ft 557 kts 160°
2026-05-04 13:56 37.77161 13.31510 33007 ft 559 kts 159°
2026-05-04 13:57 37.66356 13.37244 33011 ft 561 kts 159°
2026-05-04 13:58 37.51984 13.44768 33008 ft 557 kts 159°
2026-05-04 13:58 37.41243 13.50348 33010 ft 557 kts 159°
2026-05-04 13:59 37.34088 13.54068 33009 ft 556 kts 159°
2026-05-04 14:00 37.23421 13.59595 33009 ft 555 kts 159°
2026-05-04 14:00 37.12711 13.65131 32133 ft 558 kts 159°
2026-05-04 14:01 37.09114 13.66987 31109 ft 562 kts 159°
2026-05-04 14:01 37.05484 13.68860 30111 ft 565 kts 159°
2026-05-04 14:01 36.98208 13.72605 27775 ft 563 kts 159°
2026-05-04 14:02 36.94570 13.74473 25875 ft 567 kts 159°
2026-05-04 14:02 36.90913 13.76352 23845 ft 571 kts 159°
2026-05-04 14:02 36.87252 13.78231 22399 ft 563 kts 159°
2026-05-04 14:02 36.83667 13.80069 21050 ft 552 kts 159°
2026-05-04 14:03 36.80156 13.81868 19694 ft 542 kts 159°
2026-05-04 14:03 36.76687 13.83643 18350 ft 533 kts 159°
2026-05-04 14:03 36.73282 13.85384 17037 ft 525 kts 159°
2026-05-04 14:03 36.69927 13.87095 15910 ft 514 kts 160°
2026-05-04 14:04 36.63564 13.90339 14527 ft 482 kts 160°
2026-05-04 14:04 36.60474 13.91913 13833 ft 480 kts 160°
2026-05-04 14:04 36.57341 13.93507 13137 ft 476 kts 160°
2026-05-04 14:05 36.51277 13.96589 11815 ft 451 kts 159°
2026-05-04 14:05 36.48598 13.97970 12040 ft 388 kts 159°
2026-05-04 14:05 36.46229 13.99185 11849 ft 360 kts 159°
2026-05-04 14:06 36.43923 14.00349 11721 ft 345 kts 159°
2026-05-04 14:06 36.41799 14.01412 11588 ft 323 kts 159°
2026-05-04 14:06 36.39724 14.02448 11188 ft 313 kts 159°
2026-05-04 14:06 36.37750 14.03434 10814 ft 306 kts 159°
2026-05-04 14:07 36.35776 14.04424 10730 ft 307 kts 159°
2026-05-04 14:07 36.33798 14.05418 10605 ft 306 kts 159°
2026-05-04 14:07 36.31820 14.06415 10472 ft 306 kts 159°
2026-05-04 14:07 36.29853 14.07410 10354 ft 305 kts 159°
2026-05-04 14:08 36.27889 14.08402 10218 ft 304 kts 159°
2026-05-04 14:08 36.25930 14.09387 9876 ft 306 kts 159°
2026-05-04 14:08 36.23969 14.10374 9526 ft 302 kts 159°
2026-05-04 14:08 36.22647 14.11041 9160 ft 305 kts 159°
2026-05-04 14:09 36.18789 14.12982 8191 ft 295 kts 159°
2026-05-04 14:09 36.16898 14.13928 7671 ft 291 kts 159°
2026-05-04 14:10 36.13165 14.15809 6767 ft 289 kts 159°
2026-05-04 14:10 36.11307 14.16737 6315 ft 287 kts 159°
2026-05-04 14:10 36.09482 14.17649 5874 ft 286 kts 158°
2026-05-04 14:10 36.07642 14.18569 5430 ft 285 kts 158°
2026-05-04 14:11 36.05810 14.19495 5092 ft 282 kts 155°
2026-05-04 14:11 36.03255 14.22669 4832 ft 258 kts 107°
2026-05-04 14:11 36.02796 14.24776 4645 ft 249 kts 104°
2026-05-04 14:12 36.02275 14.26772 4519 ft 240 kts 118°
2026-05-04 14:12 36.01312 14.28397 4413 ft 230 kts 133°
2026-05-04 14:12 35.99120 14.31126 4020 ft 222 kts 135°
2026-05-04 14:13 35.98032 14.32477 3735 ft 222 kts 136°
2026-05-04 14:13 35.96934 14.33843 3451 ft 227 kts 136°
2026-05-04 14:13 35.95814 14.35238 3141 ft 230 kts 136°
2026-05-04 14:13 35.94701 14.36625 2839 ft 225 kts 137°
2026-05-04 14:14 35.93618 14.37974 2536 ft 217 kts 139°
2026-05-04 14:14 35.91595 14.40490 1995 ft 195 kts 138°
2026-05-04 14:14 35.90650 14.41664 1739 ft 190 kts 137°
2026-05-04 14:15 35.88920 14.43814 1244 ft 165 kts 137°
2026-05-04 14:15 35.87394 14.45709 843 ft 146 kts 137°
2026-05-04 14:16 35.86021 14.47412 427 ft 137 kts 138°
2026-05-04 14:16 35.85357 14.48235 274 ft 129 kts 137°
2026-05-04 14:17 35.84797 14.48985 259 ft 8 kts 63°
2026-05-04 14:17 35.84855 14.48980 258 ft 17 kts 346°
2026-05-04 14:17 35.84906 14.49093 258 ft 0 kts 128°
2026-05-04 14:19 35.84919 14.49196 258 ft 12 kts 75°
2026-05-04 14:19 35.84900 14.49288 259 ft 12 kts 129°
2026-05-04 14:19 35.84837 14.49365 259 ft 14 kts 131°
2026-05-04 14:19 35.84797 14.49450 259 ft 6 kts 53°
2026-05-04 14:20 35.84813 14.49455 259 ft 0 kts 353°
2026-05-04 14:20 35.84815 14.49455 259 ft 2 kts 356°
2026-05-04 14:21 35.84846 14.49456 259 ft 1 kts
2026-05-04 14:21 35.84850 14.49456 259 ft 0 kts 359°
2026-05-04 14:21 35.84856 14.49455 259 ft 1 kts 359°
2026-05-04 14:21 35.84860 14.49455 259 ft 0 kts 359°
2026-05-04 14:22 35.84862 14.49455 259 ft 0 kts 359°